Thief River Falls, MN

5:36 PM CDT on June 24, 2017 (GMT -0500)
Thief River Falls Regional

Weather History for KTVF - February, 2014

Change the Weather History Date:

Friday, February 7, 2014

  Actual Average Record
Temperature  
Mean Temperature -3 °F -  
Max Temperature 5 °F 17 °F 44 °F (1991)
Min Temperature -11 °F 2 °F -29 °F (1979)
Degree Days  
Heating Degree Days 68    
Moisture  
Dew Point -12 °F    
Average Humidity 67    
Maximum Humidity 84    
Minimum Humidity 27    
Precipitation  
Precipitation 0.00 in - - ()
Sea Level Pressure  
Sea Level Pressure 29.96 in    
Wind  
Wind Speed 11 mph (SW)    
Max Wind Speed 17 mph    
Max Gust Speed 22 mph    
Visibility 10 miles    
Events      
Averages and records for this station are not official NWS values.
T = Trace of Precipitation, MM = Missing Value Source: NWS Daily Summary

Daily Weather History Graph

Daily Weather History Graph

Search for Another Location

Airport or City:

Trip Planner

Search our weather history database for the weather conditions in past years. The results will help you decide how hot, cold, wet, or windy it might be!

Date:

Astronomy

Feb. 07, 2014 Rise Set
Actual Time 7:43 AM CST 5:34 PM CST
Civil Twilight 7:11 AM CST 6:07 PM CST
Nautical Twilight 6:34 AM CST 6:44 PM CST
Astronomical Twilight 5:58 AM CST 7:20 PM CST
Moon 11:41 AM CST (2/7) 2:04 AM CST (2/7)
Length of Visible Light 10h 55m
Length of Day
9h 50m
First Quarter, 59% of the Moon is Illuminated
Feb 7
First Quarter
Feb 14
Full
Feb 22
Last Quarter
Mar 1
New
Mar 8
First Quarter

Hourly Weather History & Observations

Time (CST) Temp. Windchill Dew Point Humidity Pressure Visibility Wind Dir Wind Speed Gust Speed Precip Events Conditions
12:15 AM -2.2 °F -22.2 °F -9.4 °F 71% 29.95 in 10.0 mi SW 15.0 mph - N/A   Unknown
12:35 AM -2.2 °F -22.2 °F -9.4 °F 71% 29.95 in 10.0 mi SW 15.0 mph - N/A   Unknown
12:55 AM -2.2 °F -23.5 °F -9.4 °F 71% 29.93 in 10.0 mi SW 17.3 mph 21.9 mph N/A   Clear
1:15 AM -2.2 °F -21.5 °F -7.6 °F 78% 29.93 in 10.0 mi SW 13.8 mph - N/A   Clear
1:35 AM -2.2 °F -23.5 °F -9.4 °F 71% 29.92 in 10.0 mi SW 17.3 mph - N/A   Clear
1:55 AM -2.2 °F -22.9 °F -9.4 °F 71% 29.92 in 10.0 mi SW 16.1 mph - N/A   Clear
2:15 AM -2.2 °F -20.7 °F -9.4 °F 71% 29.92 in 10.0 mi SW 12.7 mph - N/A   Clear
2:35 AM -2.2 °F -20.7 °F -9.4 °F 71% 29.92 in 10.0 mi SW 12.7 mph - N/A   Clear
2:55 AM -2.2 °F -20.7 °F -9.4 °F 71% 29.91 in 10.0 mi SW 12.7 mph 17.3 mph N/A   Clear
3:15 AM -2.2 °F -20.7 °F -11.2 °F 66% 29.91 in 10.0 mi SW 12.7 mph - N/A   Clear
3:35 AM -2.2 °F -19.9 °F -9.4 °F 71% 29.90 in 10.0 mi SW 11.5 mph - N/A   Clear
3:55 AM -2.2 °F -20.7 °F -9.4 °F 71% 29.91 in 10.0 mi SW 12.7 mph 18.4 mph N/A   Clear
4:15 AM -4.0 °F -23.0 °F -11.2 °F 71% 29.90 in 10.0 mi SW 12.7 mph - N/A   Clear
4:35 AM -4.0 °F -23.0 °F -9.4 °F 78% 29.90 in 10.0 mi SSW 12.7 mph - N/A   Clear
4:55 AM -5.8 °F -26.0 °F -13.0 °F 71% 29.90 in 10.0 mi SSW 13.8 mph - N/A   Clear
5:15 AM -5.8 °F -26.0 °F -13.0 °F 71% 29.90 in 10.0 mi SSW 13.8 mph - N/A   Clear
5:35 AM -5.8 °F -24.4 °F -11.2 °F 77% 29.91 in 10.0 mi SW 11.5 mph - N/A   Clear
5:55 AM -7.6 °F -24.6 °F -13.0 °F 77% 29.91 in 10.0 mi SSW 9.2 mph - N/A   Clear
6:15 AM -7.6 °F -26.6 °F -13.0 °F 77% 29.90 in 10.0 mi SW 11.5 mph - N/A   Clear
6:35 AM -7.6 °F -25.7 °F -14.8 °F 71% 29.90 in 10.0 mi SW 10.4 mph - N/A   Clear
6:55 AM -7.6 °F -26.6 °F -11.2 °F 84% 29.90 in 10.0 mi SW 11.5 mph - N/A   Clear
7:15 AM -7.6 °F -22.1 °F -13.0 °F 77% 29.90 in 10.0 mi SW 6.9 mph - N/A   Clear
7:35 AM -7.6 °F -24.6 °F -11.2 °F 84% 29.91 in 10.0 mi SW 9.2 mph - N/A   Clear
7:55 AM -7.6 °F -25.7 °F -13.0 °F 77% 29.91 in 10.0 mi SW 10.4 mph - N/A   Clear
8:15 AM -7.6 °F -26.6 °F -13.0 °F 77% 29.91 in 10.0 mi SW 11.5 mph - N/A   Clear
8:35 AM -7.6 °F -25.7 °F -13.0 °F 77% 29.92 in 10.0 mi SW 10.4 mph - N/A   Clear
8:55 AM -7.6 °F -22.1 °F -14.8 °F 71% 29.92 in 10.0 mi SW 6.9 mph - N/A   Clear
9:15 AM -7.6 °F -24.6 °F -13.0 °F 77% 29.93 in 10.0 mi SW 9.2 mph - N/A   Clear
9:35 AM -5.8 °F -24.4 °F -11.2 °F 77% 29.93 in 10.0 mi SW 11.5 mph - N/A   Clear
9:55 AM -4.0 °F -23.0 °F -11.2 °F 71% 29.94 in 10.0 mi SW 12.7 mph - N/A   Clear
10:15 AM -2.2 °F -19.9 °F -11.2 °F 66% 29.94 in 10.0 mi SW 11.5 mph - N/A   Clear
10:35 AM -2.2 °F -20.7 °F -9.4 °F 71% 29.95 in 10.0 mi WSW 12.7 mph - N/A   Clear
10:55 AM -0.4 °F -17.6 °F -9.4 °F 66% 29.95 in 10.0 mi WSW 11.5 mph - N/A   Clear
11:15 AM -0.4 °F -18.4 °F -9.4 °F 66% 29.95 in 10.0 mi WSW 12.7 mph - N/A   Clear
11:35 AM -0.4 °F -17.6 °F -9.4 °F 66% 29.96 in 10.0 mi WSW 11.5 mph - N/A   Clear
11:55 AM -0.4 °F -16.7 °F -9.4 °F 66% 29.96 in 10.0 mi SW 10.4 mph - N/A   Clear
12:15 PM -0.4 °F -17.6 °F -9.4 °F 66% 29.96 in 10.0 mi WSW 11.5 mph - N/A   Clear
12:35 PM 1.4 °F -14.5 °F -9.4 °F 61% 29.97 in 10.0 mi SW 10.4 mph - N/A   Clear
12:55 PM 1.4 °F -13.5 °F -7.6 °F 66% 29.97 in 10.0 mi SW 9.2 mph - N/A   Clear
1:15 PM 1.4 °F -13.5 °F -7.6 °F 66% 29.97 in 10.0 mi SW 9.2 mph - N/A   Clear
1:35 PM 3.2 °F -12.2 °F -7.6 °F 61% 29.97 in 10.0 mi WSW 10.4 mph - N/A   Clear
1:55 PM 3.2 °F -12.2 °F -5.8 °F 66% 29.97 in 10.0 mi WSW 10.4 mph - N/A   Clear
2:15 PM 3.2 °F -12.2 °F -7.6 °F 61% 29.97 in 10.0 mi WSW 10.4 mph - N/A   Clear
2:35 PM 3.2 °F -13.1 °F -5.8 °F 66% 29.96 in 10.0 mi WSW 11.5 mph - N/A   Clear
2:55 PM 3.2 °F -11.3 °F -5.8 °F 66% 29.97 in 10.0 mi WSW 9.2 mph - N/A   Clear
3:15 PM 5.0 °F -8.1 °F -5.8 °F 61% 29.97 in 10.0 mi WSW 8.1 mph - N/A   Clear
3:35 PM 5.0 °F -8.1 °F -5.8 °F 61% 29.98 in 10.0 mi West 8.1 mph - N/A   Clear
3:55 PM 5.0 °F -8.1 °F -5.8 °F 61% 29.99 in 10.0 mi WSW 8.1 mph - N/A   Clear
4:15 PM 5.0 °F -6.9 °F -5.8 °F 61% 29.99 in 10.0 mi WSW 6.9 mph - N/A   Clear
4:35 PM 3.2 °F -9.1 °F -5.8 °F 66% 30.00 in 10.0 mi SW 6.9 mph - N/A   Clear
4:55 PM 3.2 °F -7.8 °F -7.6 °F 61% 30.00 in 10.0 mi SW 5.8 mph - N/A   Clear
5:15 PM 3.2 °F -7.8 °F -7.6 °F 61% 30.00 in 10.0 mi SW 5.8 mph - N/A   Clear
5:35 PM 1.4 °F -6.2 °F -7.6 °F 66% 30.00 in 10.0 mi SW 3.5 mph - N/A   Clear
5:55 PM 1.4 °F -8.3 °F -7.6 °F 66% 30.01 in 10.0 mi South 4.6 mph - N/A   Clear
6:15 PM -0.4 °F -10.4 °F -9.4 °F 66% 30.02 in 10.0 mi SSW 4.6 mph - N/A   Clear
6:35 PM -0.4 °F - -20.2 °F 39% 30.02 in 10.0 mi Calm Calm - N/A   Clear
6:55 PM -0.4 °F -8.3 °F -27.4 °F 27% 30.02 in 10.0 mi South 3.5 mph - N/A   Clear
7:15 PM -2.2 °F - -20.2 °F 42% 30.03 in 10.0 mi Calm Calm - N/A   Clear
7:35 PM -2.2 °F - -16.6 °F 50% 30.03 in 10.0 mi Calm Calm - N/A   Clear
7:55 PM -2.2 °F - -14.8 °F 55% 30.03 in 10.0 mi Calm Calm - N/A   Clear
8:15 PM -2.2 °F - -13.0 °F 60% 30.03 in 10.0 mi Calm Calm - N/A   Clear
8:35 PM -5.8 °F - -14.8 °F 65% 30.03 in 10.0 mi Calm Calm - N/A   Clear
8:55 PM -5.8 °F - -11.2 °F 77% 30.03 in 10.0 mi Calm Calm - N/A   Clear
9:15 PM -5.8 °F - -16.6 °F 60% 30.03 in 10.0 mi Calm Calm - N/A   Clear
9:35 PM -7.6 °F - -14.8 °F 71% 30.03 in 10.0 mi Calm Calm - N/A   Clear
9:55 PM -7.6 °F - -16.6 °F 65% 30.02 in 10.0 mi Calm Calm - N/A   Clear
10:15 PM -9.4 °F - -20.2 °F 59% 30.02 in 10.0 mi Calm Calm - N/A   Clear
10:35 PM -11.2 °F -20.6 °F -20.2 °F 64% 30.02 in 10.0 mi ESE 3.5 mph - N/A   Clear
10:55 PM -11.2 °F -20.6 °F -20.2 °F 64% 30.03 in 10.0 mi ESE 3.5 mph - N/A   Clear
11:15 PM -9.4 °F - -18.4 °F 65% 30.03 in 10.0 mi Calm Calm - N/A   Clear
11:35 PM -9.4 °F - -14.8 °F 77% 30.03 in 10.0 mi Calm Calm - N/A   Clear
11:55 PM -11.2 °F -23.0 °F -22.0 °F 59% 30.03 in 6.0 mi ESE 4.6 mph - N/A   Clear